Tracking 19847 objects as of 18-Sep-2019
HD Live streaming from Space Station
objects crossing your sky now

ORBCOMM FM 4

Track ORBCOMM FM 4 now!
10-day predictions
ORBCOMM FM 4 is classified as:


NORAD ID: 25159
Int'l Code: 1998-007C
Perigee: 766.4 km
Apogee: 833.3 km
Inclination: 108.0 °
Period: 100.7 minutes
Semi major axis: 7170 km
RCS: 1.0023 m2 (large)
Launch date: February 10, 1998
Source: ORBCOMM (ORB)
Launch site: AIR FORCE WESTERN TEST RANGE (AFWTR)
aabbcc
Your satellite tracking list
Your tracking list is empty




NASA's NSSDC Master Catalog

Two Line Element Set (TLE):
1 25159U 98007C   19260.69862618  .00000023  00000-0  59618-4 0  9998
2 25159 107.9929 165.7139 0046643 293.9050  65.7205 14.29695820123988
Source of the keplerian elements: AFSPC